Location: Black Forest
(43.4794°N, 75.0081°W)
Time: 21:50:34
(UTC-05:00)

ISS - Visible Passes

Search period start: 21 November 2014 00:00
Search period end: 01 December 2014 00:00
Orbit: 408 x 417 km, 51.6° (Epoch: 21 November)

Date Brightness Start Highest point End Pass type
(mag) Time Alt. Az. Time Alt. Az. Time Alt. Az.
21 Nov -1.5 05:22:02 20° N 05:22:34 21° N 05:25:11 10° ENE visible
22 Nov -0.4 04:34:27 14° NE 04:34:27 14° NE 04:35:15 10° NE visible
22 Nov -2.3 06:07:16 13° NW 06:10:02 39° NNE 06:13:10 10° E visible
23 Nov -1.9 05:19:40 27° N 05:20:15 29° NNE 05:23:11 10° E visible
24 Nov -0.5 04:32:02 16° NE 04:32:02 16° NE 04:33:06 10° ENE visible
24 Nov -3.3 06:04:51 16° NW 06:07:23 81° NNE 06:10:42 10° ESE visible
25 Nov -2.8 05:17:13 47° N 05:17:36 50° NNE 05:20:49 10° ESE visible
26 Nov -0.5 04:29:36 19° ENE 04:29:36 19° ENE 04:30:46 10° E visible
26 Nov -2.6 06:02:25 19° W 06:04:23 40° SW 06:07:30 10° SSE visible
27 Nov -3.2 05:14:49 68° S 05:14:49 68° S 05:17:53 10° SE visible
28 Nov -0.3 04:27:13 16° ESE 04:27:13 16° ESE 04:27:59 10° ESE visible
28 Nov -1.4 06:00:03 15° WSW 06:01:00 16° SW 06:03:09 10° S visible
29 Nov -1.4 05:12:29 21° S 05:12:29 21° S 05:14:06 10° SSE visible
